Tracking 31027 objects as of 19-Jul-2025
HD Live streaming from Space Station
objects crossing your sky now

IUS R/B(1)

Track IUS R/B(1) now!


NORAD ID: 19549
Int'l Code: 1988-091C
Perigee: 300.9 km
Apogee: 28,659.1 km
Inclination: 26.5 °
Period: 499.4 minutes
Semi major axis: 20850 km
RCS: 12.0384 m2 (large)
Launch date: September 29, 1988
Source: United States (US)
Launch site: AIR FORCE EASTERN TEST RANGE (AFETR)

Note: This is a ROCKET BODY
Your satellite tracking list
NUSAT-20 (GRACE)
Track 1 satellite(s)




NASA's NSSDC Master Catalog

Two Line Element Set (TLE):
1 19549U 88091C   25199.66731556  .00000912  00000-0  36112-3 0  9997
2 19549  26.5307  62.6423 6800210 288.0057  12.6782  2.88345693346763
Source of the keplerian elements: AFSPC